Location: G�ndlingen
(48.0142°N, 7.6396°E)
Time: 02:51:01
(UTC+00:00)

Cosmos 923 Rocket - Pass Details

Date: 05 July 2020
Orbit: 757 x 786 km, 74.0° (Epoch: 04 August)

Event Time Altitude Azimuth Distance (km) Brightness Sun altitude
Exits shadow 21:52:19 21° 185° (S) 1,678 5.3 -15.7°
Maximum altitude 21:55:49 66° 108° (ESE) 844 4.0 -15.9°
Drops below altitude 10° 22:01:04 10° 28° (NNE) 2,334 7.1 -16.3°
Sets 22:03:29 0° 25° (NNE) 3,271 7.9 -16.4°
